VENESAT-1               
1 33414U 08055A   19266.06597589 -.00000247  00000-0  00000+0 0  9999
2 33414   0.0447 355.6836 0002336 237.3974  74.2944  1.00272638 39895
CZ-3B R/B               
1 33415U 08055B   19265.53285540  .00183321 -27070-6  10514-2 0  9993
2 33415  23.8349 354.7138 5787676 210.2446  97.5845  4.49415136115274